Content
SEND FEEDBACK

Daily
Averages
Monthly
Summary
Norway

KONGSVINGER, NORWAY


Home > Europe > Norway
Elevation: 669 feet     Latitude: 60 12N     Longitude: 011 05E

WEATHER
 
SELECT A DAY
Number of Records: 295,543;   Date Range: 7/1/96 - 11/26/14
 
SHARE

PRINT THIS DATA

[ ← Previous Day ]
WEATHER ALMANAC - FEBRUARY 13, 2013
[ Next Day → ]
[ °C ]   °F
Weather ElementAverageHighLow
Temperature21.2 °F23 °F (11:46 am)19 °F (7:00 am)
Dewpoint18.1 °F19.4 °F (11:46 am)15.8 °F (2:41 am)
Humidity87.6 %93 % (1:48 am)77 % (1:00 pm)
Barometer30.28 in30.33 in (4:43 pm)30.21 in (12:45 am)
Wind Speed3.2 mph6.9 mph (12:45 am)
Wind Gust15 mph (1:42 pm)
Weather ElementAverage
Visibility6.2 mi
Wind DirectionNE (41.2 °)

Weather ElementTotal
Precipitation---
Heating Degree Days44 (Base 65)
Averaged from 51 records on February 13, 2013
WEATHER CONDITIONS BREAKOUT
WIND DIRECTION BREAKOUT
WEATHER BY HOUR - FEBRUARY 13, 2013
[ °C ]   °F
Local TimeTemperatureDewpointHumidityBarometerVisibilityWind DirectionWind SpeedGust SpeedPrecipitationEventsConditions
12:45 AM21.2 °F17.6 °F86 %30.21 in2.5 miNorth (10°)6.9 mphSnowLight Snow
1:00 AM21.0 °F18.0 °F83 %2.0 miNNE (20°)6.7 mphSnowLight Snow
1:17 AM21.2 °F17.6 °F86 %30.21 in3.1 miNorth (10°)6.9 mphSnowLight Snow
1:48 AM19.4 °F17.6 °F93 %30.21 in5.0 miNorth (10°)4.6 mphSnowLight Snow
2:16 AM21.2 °F17.6 °F86 %30.21 in6.2 miNorth (360°)4.6 mphSnowLight Snow
2:41 AM19.4 °F15.8 °F86 %30.21 in6.2 miNorth (10°)5.8 mphSnowLight Snow
3:12 AM19.4 °F15.8 °F86 %30.21 in6.2 miVariable2.3 mphSnowLight Snow
3:42 AM19.4 °F15.8 °F86 %30.21 in6.2 miNorth (360°)4.6 mphSnowLight Snow
4:12 AM19.4 °F15.8 °F86 %30.21 in5.6 miNorth (10°)4.6 mphSnowLight Snow
4:41 AM19.4 °F17.6 °F93 %30.21 in6.2 miNorth (10°)6.9 mphSnowLight Snow
5:10 AM21.2 °F17.6 °F86 %30.21 in6.2 miNorth (10°)6.9 mphSnowLight Snow
5:41 AM19.4 °F17.6 °F93 %30.21 in6.2 miNNE (20°)5.8 mphSnowLight Snow
6:10 AM19.4 °F15.8 °F86 %30.21 in6.2 miNE (40°)4.6 mphSnowLight Snow
6:40 AM19.4 °F15.8 °F86 %30.21 in6.2 miNE (40°)4.6 mphSnowLight Snow
7:00 AM19.0 °F17.0 °F88 %9.0 miNE (40°)6.7 mphSnowLight Snow
7:12 AM19.4 °F15.8 °F86 %30.24 in6.2 miNE (50°)3.5 mphSnowLight Snow
7:43 AM19.4 °F17.6 °F93 %30.24 in6.2 miNE (50°)4.6 mphMostly Cloudy
8:11 AM19.4 °F15.8 °F86 %30.24 in6.2 miNE (40°)3.5 mphMostly Cloudy
8:44 AM19.4 °F15.8 °F86 %30.27 in6.2 miNNE (20°)2.3 mphMostly Cloudy
9:11 AM19.4 °F15.8 °F86 %30.27 in6.2 miNE (40°)3.5 mphMostly Cloudy
9:44 AM21.2 °F17.6 °F86 %30.27 in6.2 miNE (40°)3.5 mphMostly Cloudy
10:11 AM21.2 °F17.6 °F86 %30.27 in6.2 miNE (50°)3.5 mphMostly Cloudy
10:44 AM21.2 °F17.6 °F86 %30.30 in6.2 miNNE (30°)3.5 mphMostly Cloudy
11:13 AM21.2 °F17.6 °F86 %30.30 in6.2 miNE (50°)3.5 mphMostly Cloudy
11:46 AM23.0 °F19.4 °F86 %30.30 in6.2 miVariable3.5 mphMostly Cloudy
12:12 PM23.0 °F17.6 °F80 %30.30 in6.2 miCalmMostly Cloudy
12:44 PM23.0 °F19.4 °F86 %30.30 in6.2 miSouth (180°)1.2 mphSnowLight Snow
1:00 PM23.0 °F19.0 °F77 %6.0 miEast (90°)2.2 mphSnowLight Snow
1:12 PM23.0 °F19.4 °F86 %30.30 in6.2 miCalmSnowLight Snow
1:42 PM23.0 °F19.4 °F86 %30.30 in6.2 miVariable3.5 mph15.0 mphSnowLight Snow
2:20 PM23.0 °F19.4 °F86 %30.30 in6.2 miVariable2.3 mphSnowLight Snow
2:40 PM23.0 °F19.4 °F86 %30.30 in6.2 miCalmSnowLight Snow
3:11 PM23.0 °F19.4 °F86 %30.30 in6.2 miCalmScattered Clouds
3:42 PM23.0 °F19.4 °F86 %30.30 in6.2 miCalmMostly Cloudy
4:12 PM23.0 °F19.4 °F86 %30.30 in6.2 miVariable1.2 mphMostly Cloudy
4:43 PM23.0 °F19.4 °F86 %30.33 in6.2 miSE (130°)5.8 mphMostly Cloudy
5:12 PM23.0 °F19.4 °F86 %30.33 in6.2 miSE (140°)5.8 mphMostly Cloudy
5:40 PM23.0 °F19.4 °F86 %30.33 in6.2 miSE (130°)3.5 mphSnowLight Snow
6:14 PM23.0 °F19.4 °F86 %30.33 in6.2 miVariable2.3 mphSnowLight Snow
6:42 PM23.0 °F19.4 °F86 %30.33 in6.2 miVariable1.2 mphSnowLight Snow
7:00 PM22.0 °F19.0 °F84 %16.0 miCalmSnowLight Snow
7:15 PM21.2 °F19.4 °F93 %30.33 in6.2 miVariable1.2 mphSnowLight Snow
7:42 PM21.2 °F19.4 °F93 %30.33 in6.2 miCalmSnowLight Snow
8:15 PM21.2 °F19.4 °F93 %30.33 in6.2 miVariable2.3 mphSnowLight Snow
8:40 PM21.2 °F19.4 °F93 %30.33 in6.2 miVariable2.3 mphSnowLight Snow
9:10 PM21.2 °F19.4 °F93 %30.33 in6.2 miVariable2.3 mphOvercast
9:40 PM21.2 °F19.4 °F93 %30.33 in6.2 miCalmOvercast
10:15 PM21.2 °F19.4 °F93 %30.33 in6.2 miVariable2.3 mphSnowLight Snow
10:45 PM21.2 °F19.4 °F93 %30.33 in6.2 miVariable1.2 mphSnowLight Snow
11:15 PM21.2 °F19.4 °F93 %30.33 in6.2 miENE (70°)3.5 mphSnowLight Snow
11:42 PM21.2 °F19.4 °F93 %30.33 in6.2 miVariable2.3 mphSnowLight Snow
Hourly data recorded from ENGM, located miles away from Kongsvinger, Norway







STORIES FROM OUR PARTNERS